SCP
0 0 -0 0 -0 -0 -0 -0 -0 -0 -0 -0 -0 -0 -0 -0 -0 -0 0 0 0 0 0 0 0 0 0
0 0 0 0 0 0 0 0 0 -0 0 0 0 -0 -0 -0 0 0 0 0 0 0 0 0 0 0 0
0 0 0 0 0 0 0 0 0 0 0 0 0 0 0 0 0 0 0 0 0 0 0 0 -0 0 0
0 -0 0 0 0 0 0 0 0 0 0 0 0 0 0 0 0 0 0 0 0 0 0 0 0 0 0
0 0 0 0 0 0 0 0 0 0 0 0 0 0 0 0 0 0 0 0 0 0 0 0 0 0 0
0 0 0 0 0 0 0 0 0 0 0 0 0 0 0 0 0 0 0 0 0 0 0 0 0 0 0
0 0 0 0 0 0 0 0 0 0 0 0 0 0 0 0 0 0 0 0 0 0 0 0 0 0 0
0 0 0 0 0 0 0 0 0 0 0 0 0 0 0 0 0 0 0 0 0 0 0 0 0 0 0
0 0 0 0 0 0 0 0 0 0 0 0 0 0 0 0 0 0 0 0 0 0 0 0 0 0 0
0 0 0 0 0 0 0 0 0 0 0 0 0 0 0 0 0 0 0 0 0 0 0 0 0 0 0
0 0 0 0 0 0 0 0 0 0 0 0 0 0 0 0 0 0 0 0 0 0 0 0 0 0 0
0 0 0 0 0 0 0 0 0 0 0 0 0 0 0 0 0 0 0 0 0 0 0 0 0 0 0
0 0 0 0 0 0 0 0 0 0 0 0 0 0 0 0 0 0 0 0 0 0 0 0 0 0 0
0 0 0 0 0 0 0 0 0 0 0 0 0 0 0 0 0 0 0 0 0 0 0 0 0 0 0
0 0 0 0 0 0 0 0 0 0 0 0 0 0 0 0 0 0 0 0 0 0 0 0 0 0 0
0 0 0 0 0 0 0 0 0 0 0 0 0 0 0 0 0 0 0 0 0 0 0 0 0 0 0
Wind_Speed_500mb
24 23 16 10 6 6 8 8 16 18 19 19 20 20 20 20 20 18 16 15 15 16 17 19 19 14 15
29 23 18 14 9 6 10 12 15 18 19 20 20 20 19 18 15 13 13 13 12 12 14 16 16 15 12
28 26 21 15 12 10 11 11 12 16 17 16 15 15 14 12 11 9 8 7 10 10 12 14 15 12 7
31 30 26 20 16 14 15 15 15 15 16 15 14 13 13 10 6 3 2 4 6 7 10 12 11 16 10
32 33 31 27 21 20 20 20 20 19 18 18 18 16 14 13 9 5 2 2 3 5 7 10 12 14 13
33 33 32 29 25 22 22 24 24 23 22 21 20 19 17 14 10 7 7 7 6 6 6 9 10 13 13
36 36 35 32 28 26 25 26 25 24 24 23 22 20 17 15 13 12 12 10 10 10 9 10 10 10 13
38 37 35 35 33 31 30 28 27 26 26 26 24 21 20 19 18 16 15 13 14 15 15 15 16 14 17
42 40 41 40 38 36 35 33 31 30 28 27 27 24 24 23 20 18 18 17 17 19 18 17 17 15 18
47 46 44 45 43 42 40 39 37 35 32 32 30 29 27 25 24 23 22 21 20 21 18 20 17 19 20
54 51 48 46 47 46 45 45 43 41 38 36 33 31 32 31 30 29 28 26 22 22 22 25 24 26 27
57 56 55 53 52 52 49 50 47 46 43 40 38 37 37 37 35 34 32 32 30 27 28 30 32 36 39
68 68 66 66 60 59 56 52 48 48 48 47 44 42 44 44 40 37 37 38 35 34 32 36 38 39 45
73 74 71 67 67 64 60 59 52 51 50 51 49 48 48 47 46 46 45 43 40 41 37 40 36 38 46
71 75 75 73 74 72 71 69 64 60 55 53 53 52 51 52 53 51 51 48 45 46 45 40 22 19 24
74 79 81 81 82 80 78 75 71 68 63 60 55 54 54 55 57 56 52 52 52 52 55 54 56 56 38
Wind_Direction_500mb
183 194 205 207 199 156 173 174 146 135 132 127 127 129 123 121 116 110 98 84 67 51 46 46 50 69 83
188 198 201 202 192 197 188 190 163 149 145 142 139 143 145 135 123 96 74 65 61 48 39 39 42 57 80
190 192 197 200 205 203 191 185 173 160 155 152 153 149 143 134 121 99 74 62 47 40 26 20 20 25 65
196 195 197 200 200 199 199 189 183 176 172 167 166 163 159 155 142 120 91 60 43 22 15 16 20 10 49
204 204 206 202 202 204 200 194 194 193 188 185 183 182 184 184 192 217 273 310 334 0 6 10 14 15 23
215 214 218 215 209 204 204 201 201 201 199 197 197 198 200 205 219 237 243 256 290 311 330 349 343 352 337
226 223 222 221 220 215 211 206 205 209 208 207 208 210 213 216 228 239 248 262 280 286 293 308 305 324 316
230 234 233 227 223 223 220 215 215 212 215 216 217 218 221 226 233 239 253 264 270 275 284 294 290 298 306
230 234 237 235 231 227 225 222 221 219 217 222 223 226 229 235 243 249 255 262 268 275 274 282 294 295 303
230 232 237 240 238 234 230 228 227 224 223 224 228 230 236 242 246 251 257 263 263 271 266 277 289 287 309
233 233 235 239 242 239 236 233 231 230 229 229 231 235 238 243 246 250 255 257 262 270 272 279 280 282 282
234 235 234 236 238 238 237 237 234 234 233 234 235 236 240 245 247 251 257 263 262 265 275 280 285 287 282
229 231 232 234 237 238 238 241 239 237 236 235 237 238 241 246 250 254 255 257 262 263 274 279 286 283 282
232 234 235 238 240 243 244 244 243 242 240 239 241 241 243 247 250 252 255 258 258 263 267 275 282 288 288
234 234 236 238 241 242 243 242 240 241 241 241 243 245 247 248 250 252 254 256 260 269 260 258 262 263 278
235 233 236 238 239 241 242 244 242 242 242 244 245 247 249 250 252 254 256 259 259 256 265 258 260 265 271
Wind_Speed_850mb
24 23 16 10 6 6 8 8 16 18 19 19 20 20 20 20 20 18 16 15 15 16 17 19 19 14 15
29 23 18 14 9 6 10 12 15 18 19 20 20 20 19 18 15 13 13 13 12 12 14 16 16 15 12
28 26 21 15 12 10 11 11 12 16 17 16 15 15 14 12 11 9 8 7 10 10 12 14 15 12 7
31 30 26 20 16 14 15 15 15 15 16 15 14 13 13 10 6 3 2 4 6 7 10 12 11 16 10
32 33 31 27 21 20 20 20 20 19 18 18 18 16 14 13 9 5 2 2 3 5 7 10 12 14 13
33 33 32 29 25 22 22 24 24 23 22 21 20 19 17 14 10 7 7 7 6 6 6 9 10 13 13
36 36 35 32 28 26 25 26 25 24 24 23 22 20 17 15 13 12 12 10 10 10 9 10 10 10 13
38 37 35 35 33 31 30 28 27 26 26 26 24 21 20 19 18 16 15 13 14 15 15 15 16 14 17
42 40 41 40 38 36 35 33 31 30 28 27 27 24 24 23 20 18 18 17 17 19 18 17 17 15 18
47 46 44 45 43 42 40 39 37 35 32 32 30 29 27 25 24 23 22 21 20 21 18 20 17 19 20
54 51 48 46 47 46 45 45 43 41 38 36 33 31 32 31 30 29 28 26 22 22 22 25 24 26 27
57 56 55 53 52 52 49 50 47 46 43 40 38 37 37 37 35 34 32 32 30 27 28 30 32 36 39
68 68 66 66 60 59 56 52 48 48 48 47 44 42 44 44 40 37 37 38 35 34 32 36 38 39 45
73 74 71 67 67 64 60 59 52 51 50 51 49 48 48 47 46 46 45 43 40 41 37 40 36 38 46
71 75 75 73 74 72 71 69 64 60 55 53 53 52 51 52 53 51 51 48 45 46 45 40 22 19 24
74 79 81 81 82 80 78 75 71 68 63 60 55 54 54 55 57 56 52 52 52 52 55 54 56 56 38
Wind_Direction_850mb
183 194 205 207 199 156 173 174 146 135 132 127 127 129 123 121 116 110 98 84 67 51 46 46 50 69 83
188 198 201 202 192 197 188 190 163 149 145 142 139 143 145 135 123 96 74 65 61 48 39 39 42 57 80
190 192 197 200 205 203 191 185 173 160 155 152 153 149 143 134 121 99 74 62 47 40 26 20 20 25 65
196 195 197 200 200 199 199 189 183 176 172 167 166 163 159 155 142 120 91 60 43 22 15 16 20 10 49
204 204 206 202 202 204 200 194 194 193 188 185 183 182 184 184 192 217 273 310 334 0 6 10 14 15 23
215 214 218 215 209 204 204 201 201 201 199 197 197 198 200 205 219 237 243 256 290 311 330 349 343 352 337
226 223 222 221 220 215 211 206 205 209 208 207 208 210 213 216 228 239 248 262 280 286 293 308 305 324 316
230 234 233 227 223 223 220 215 215 212 215 216 217 218 221 226 233 239 253 264 270 275 284 294 290 298 306
230 234 237 235 231 227 225 222 221 219 217 222 223 226 229 235 243 249 255 262 268 275 274 282 294 295 303
230 232 237 240 238 234 230 228 227 224 223 224 228 230 236 242 246 251 257 263 263 271 266 277 289 287 309
233 233 235 239 242 239 236 233 231 230 229 229 231 235 238 243 246 250 255 257 262 270 272 279 280 282 282
234 235 234 236 238 238 237 237 234 234 233 234 235 236 240 245 247 251 257 263 262 265 275 280 285 287 282
229 231 232 234 237 238 238 241 239 237 236 235 237 238 241 246 250 254 255 257 262 263 274 279 286 283 282
232 234 235 238 240 243 244 244 243 242 240 239 241 241 243 247 250 252 255 258 258 263 267 275 282 288 288
234 234 236 238 241 242 243 242 240 241 241 241 243 245 247 248 250 252 254 256 260 269 260 258 262 263 278
235 233 236 238 239 241 242 244 242 242 242 244 245 247 249 250 252 254 256 259 259 256 265 258 260 265 271